Погода в Гервятах

Беларусь     54°41′18″N   26°08′37″E
темп.,
°C
ветер,
м/с
пор.,
м/с
влажн.,
%
обл.,
%
осадки,
мм/ч
давл.,
гПа
погр.,
м
19 апреля, пн
пн1900:00+7всв22715 0.0 102216
03:00+6всв11767 0.0 102211
06:00+5всв227877 0.0 102234
09:00+9в366592 0.0 1022382
12:00+13в465145 0.1 10221892
15:00+12в575793 0.3 10221525
18:00+12всв475856 0.1 10211404
21:00+9св377385 0.2 1021287
20 апреля, вт
вт2000:00+6в389155 0.1 1021213
03:00+5всв249621 0.1 102184
06:00+4св239688 0.0 102077
09:00+7всв3583100 0.2 1018500
12:00+9в3472100 0.5 10171125
15:00+9св3363100 0.9 10151171
18:00+8св3472100 0.6 1014741
21:00+4всв258995 0.8 101497
21 апреля, ср
ср2100:00+4св227755 0.0 101256
03:00+2ссз228314 0.0 101126
06:00+3зсз2485100 0.0 1010138
09:00+5сз357875 0.0 1009547
12:00+8сз466397 0.2 10081341
15:00+9зсз4657100 0.3 10071399
18:00+10зсз365285 0.1 10071512
21:00+6юз227856 0.1 100727
22 апреля, чт
чт2200:00+4ююз368211 0.0 1008113
03:00+4юз2691100 0.0 100899
06:00+3ю3109369 0.0 1007212
09:00+6з6787100 0.1 1008830
12:00+6зюз476157 0.1 10101229
15:00+10юз5843100 0.1 10102318
18:00+9зюз5104711 0.0 10102254
21:00+4ююз386632 0.0 1012225
23 апреля, пт
пт2300:00+2ююз38795 0.0 1012242
03:00+1ююз410815 0.0 1011392
06:000ююз4118768 0.0 1011504
09:00+3юз588095 0.0 1010854
12:00+4юз61090100 0.9 10101050
15:00+6з697065 1.7 10111371
18:00+5зсз7127784 0.7 10131283
21:00+1зсз5128558 0.8 1015741